Ely, NV

12:04 PM PST on February 14, 2016 (GMT -0800)
Ely

Weather History for KELY - November, 2012

Change the Weather History Date:

Friday, November 16, 2012

  Actual Average Record
Temperature  
Mean Temperature 42 °F 33 °F  
Max Temperature 49 °F 48 °F 68 °F (2008)
Min Temperature 35 °F 19 °F -10 °F (1958)
Degree Days  
Heating Degree Days 23 32  
Month to date heating degree days 413 454  
Since 1 July heating degree days 1085 1382  
Cooling Degree Days 0 0  
Month to date cooling degree days 0 0  
Year to date cooling degree days 314 218  
Moisture  
Dew Point 25 °F    
Average Humidity 55    
Maximum Humidity 76    
Minimum Humidity 33    
Precipitation  
Precipitation T in 0.02 in 0.27 in (1954)
Month to date precipitation 0.47 0.42  
Year to date precipitation 10.52 8.89  
Snow  
Snow 0.00 in 0.20 in 4.40 in (1964)
Month to date snowfall 7.5 3.0  
Since 1 July snowfall 10.0 6.4  
Since 1 September snowfall 10.0 6.4  
Snow Depth 0.00 in    
Sea Level Pressure  
Sea Level Pressure 30.00 in    
Wind  
Wind Speed 9 mph (South)    
Max Wind Speed 22 mph    
Max Gust Speed 25 mph    
Visibility 10 miles    
Events      
T = Trace of Precipitation, MM = Missing Value Source: NWS Daily Summary

Daily Weather History Graph

Daily Weather History Graph

Search for Another Location

Airport or City:

Trip Planner

Search our weather history database for the weather conditions in past years. The results will help you decide how hot, cold, wet, or windy it might be!

Date:

Astronomy

Nov. 16, 2012 Rise Set
Actual Time 6:24 AM PST 4:23 PM PST
Civil Twilight 5:55 AM PST 4:52 PM PST
Nautical Twilight 5:23 AM PST 5:24 PM PST
Astronomical Twilight 4:51 AM PST 5:56 PM PST
Moon 9:22 AM PST (11/16) 7:28 PM PST (11/16)
Length of Visible Light 10h 56m
Length of Day
9h 58m
Waxing Crescent, 12% of the Moon is Illuminated
Nov 16
Waxing Crescent
Nov 20
First Quarter
Nov 28
Full
Dec 6
Last Quarter
Dec 13
New

Hourly Weather History & Observations

Time (PST) Temp. Windchill Dew Point Humidity Pressure Visibility Wind Dir Wind Speed Gust Speed Precip Events Conditions
12:53 AM 39.0 °F 34.8 °F 19.0 °F 45% 30.01 in 10.0 mi South 5.8 mph - N/A   Clear
1:53 AM 41.0 °F 34.3 °F 18.0 °F 40% 29.98 in 10.0 mi SSW 11.5 mph - N/A   Overcast
2:53 AM 41.0 °F 35.2 °F 18.0 °F 40% 29.96 in 10.0 mi SSW 9.2 mph - N/A   Overcast
3:53 AM 42.8 °F 37.5 °F 15.8 °F 34% 30.10 in 10.0 mi South 9.2 mph - N/A   Overcast
4:53 AM 37.9 °F 30.9 °F 19.0 °F 47% 29.99 in 10.0 mi South 10.4 mph - N/A   Overcast
5:53 AM 41.0 °F 35.8 °F 19.9 °F 43% 29.99 in 10.0 mi SSE 8.1 mph - N/A   Overcast
6:53 AM 37.9 °F 34.4 °F 18.0 °F 45% 30.04 in 10.0 mi South 4.6 mph - N/A   Overcast
7:53 AM 42.1 °F 34.9 °F 17.1 °F 37% 30.03 in 10.0 mi SSW 13.8 mph - N/A   Overcast
8:53 AM 45.0 °F 41.2 °F 19.0 °F 36% 30.03 in 10.0 mi South 6.9 mph - N/A   Mostly Cloudy
9:53 AM 46.0 °F 39.9 °F 25.0 °F 44% 30.02 in 10.0 mi SSE 13.8 mph 20.7 mph N/A   Overcast
10:53 AM 48.0 °F - 28.0 °F 46% 30.03 in 10.0 mi South 4.6 mph 23.0 mph N/A   Overcast
11:53 AM 46.9 °F - 28.0 °F 48% 30.01 in 10.0 mi South 13.8 mph 19.6 mph N/A   Mostly Cloudy
12:53 PM 46.9 °F - 28.0 °F 48% 29.99 in 10.0 mi SW 3.5 mph - N/A   Mostly Cloudy
1:53 PM 48.9 °F - 28.0 °F 44% 29.95 in 10.0 mi Calm Calm - N/A   Scattered Clouds
2:53 PM 46.9 °F - 30.0 °F 52% 29.96 in 10.0 mi SSE 10.4 mph - N/A   Overcast
3:53 PM 42.1 °F 36.6 °F 35.1 °F 76% 29.99 in 10.0 mi SSE 9.2 mph - 0.00 in   Overcast
4:53 PM 42.1 °F 36.6 °F 33.1 °F 70% 30.01 in 10.0 mi SSW 9.2 mph - N/A   Overcast
5:53 PM 42.1 °F 37.1 °F 30.9 °F 65% 30.00 in 10.0 mi SSW 8.1 mph - N/A   Overcast
6:53 PM 41.0 °F 36.4 °F 30.0 °F 65% 30.01 in 10.0 mi SSW 6.9 mph - N/A   Scattered Clouds
7:53 PM 39.9 °F 36.7 °F 30.0 °F 68% 30.01 in 10.0 mi SSE 4.6 mph - N/A   Overcast
8:53 PM 41.0 °F 35.2 °F 26.1 °F 55% 30.00 in 10.0 mi SSW 9.2 mph - N/A   Scattered Clouds
9:53 PM 39.9 °F 33.9 °F 28.0 °F 63% 30.01 in 10.0 mi South 9.2 mph - N/A   Overcast
10:53 PM 41.0 °F 34.3 °F 30.9 °F 67% 29.99 in 10.0 mi South 11.5 mph - N/A   Overcast
11:53 PM 39.9 °F 32.1 °F 30.0 °F 68% 30.00 in 10.0 mi South 13.8 mph - N/A   Overcast